Location: Finney State Fishing Lake and Wildlife Area
(38.1834°N, 100.3310°W)
Time: 13:45:19
(UTC+00:00)

USA 229 - Pass Details

Date: 17 October 2021
Orbit: 946 x 1266 km, 63.4° (Epoch: 25 November)

Event Time Altitude Azimuth Distance (km) Brightness Sun altitude
Rises 12:13:01 0° 323° (NW) 4,023 6.3 -8.5°
Reaches altitude 10° 12:15:43 10° 319° (NW) 3,101 5.7 -8.0°
Maximum altitude 12:23:01 57° 243° (WSW) 1,423 4.1 -6.5°
Drops below altitude 10° 12:30:40 10° 168° (SSE) 3,234 6.5 -5.0°
Sets 12:33:32 0° 164° (SSE) 4,207 7.2 -4.5°
